User: anonymous   Login
Location: Unspecified
(0.0000°N, 0.0000°E)
Time: 15:31:48
(UTC+00:00)
Language:

DSP F14 - Orbit

View from above orbital plane
View from above orbital plane
View from above satellite
View from above satellite

Ground track
Ground track

The orbit data is extracted from the following two-line orbital elements,

1 20066U 89046A   17145.16249801 0.00000000  00000-0  00000-0 0    03
2 20066  14.7364   7.7898 0003110 233.8286 126.1547  0.98815065    05
Epoch (UTC): 25 May 2017 03:53:59
Eccentricity: 0.0003110
inclination: 14.7364°
perigee height: 36186 km
apogee height: 36213 km
right ascension of ascending node: 7.7898°
argument of perigee: 233.8286°
revolutions per day: 0.98815065
mean anomaly at epoch: 126.1547°
orbit number at epoch: 0

The dashed part of the orbit path shows where the satellite is in the earth's shadow,  

DLR